Погода в Бутаково

Россия / Иркутская область     54°03′30″N   106°06′50″E
темп.,
°C
ветер,
м/с
пор.,
м/с
влажн.,
%
обл.,
%
осадки,
мм/ч
давл.,
гПа
погр.,
м
7 мая, пт
пт723:00+2сз5108287 0.2 1008945
02:000зсз389178 0.3 1009408
05:00+1сз5107990 0.0 1010624
08:00+3ссз566880 0.1 10121037
11:00+7ссз464189 0.1 10121876
14:00+9ссв4434100 0.1 10122100
17:00+10св333293 0.0 10112097
20:00+7всв36485 0.0 1012161
8 мая, сб
сб823:00+2всв127613 0.0 101511
02:000св2285100 0.0 101513
05:00−1ссв119177 0.0 101412
08:00+3сз0168100 0.0 1015298
11:00+9юз2343100 0.0 10121132
14:00+13зюз3429100 0.0 10082726
17:00+11зсз45446 0.1 10091582
20:00+7сз47585 0.1 1011535
9 мая, вс
вс923:00+4зсз2282100 0.0 101320
02:00+3зсз119299 0.0 101311
05:00+4зюз1288100 0.1 101278
08:00+6зсз3668100 0.3 10121018
11:00+11зсз244298 0.0 10091953
14:00+12з3345100 0.1 10081829
17:00+7св2382100 2.1 1008449
20:00+6ссз3587100 3.9 1008810
10 мая, пн
пн1023:00+5зсз2590100 7.2 1010431
02:00+5сз2788100 9.1 1010693
05:00+3сз3689100 0.2 1010301
08:00+4зсз4778100 0.3 1011727
11:00+6сз3562100 0.1 10111366
14:00+6сз4663100 0.3 10111128
17:00+6ссз5659100 0.1 10121252
20:00+4сз3879100 0.1 1013873
11 мая, вт
вт1123:00+3зсз2795100 0.0 1013545
02:00+3зсз3897100 0.1 1011410
05:00+3сз31097100 0.8 1011546
08:00+3сз2897100 5.4 1013523
11:00+4сз3794100 0.9 1014516
14:00+6ссз3378100 1.1 1013810
17:00+8сз127167 0.0 1013652
20:00+7ююв117893 0.1 101310